Home   Weather   Brăila   Past weeks

Flag for Romania Past Weather in Brăila, Romania — Yesterday and Last 2 Weeks

Now
49 °F

Overcast.


Feels Like: 49 °F
Forecast: 44 / 60 °F
Wind: 2 mph from South

Location: Galati

Current Time: Feb 23, 2017 at 8:56:40 pm

Latest Report: Feb 23, 2017 at 8:00 pm


Visibility: 6 mi

Pressure: 29.79 "Hg

Humidity: 90%

Dew Point: 46 °F

Location of BrăilaLocation

Past Weather in Brăila — Graph

°F

Brăila Temperature Yesterday

Maximum temperature yesterday: 54 °F (at 3:00 pm)
Minimum temperature yesterday: 37 °F (at 4:00 am)
Average temperature yesterday: 44 °F

High & Low Weather Summary for the Past Weeks

 TemperatureHumidityPressure
High54 °F (Feb 22, 3:00 pm)100% (Feb 20, 5:00 am)30.75 "Hg (Feb 20, 5:00 am)
Low10 °F (Feb 11, 6:00 am)47% (Feb 22, 5:00 pm)29.71 "Hg (Feb 23, 7:00 am)
Average30 °F84%30.35 "Hg
* Reported Feb 8 7:00 pm — Feb 23 7:00 pm, Brăila, Weather by CustomWeather, © 2017

Note: Actual official high and low records may vary slightly from our data, if they occured in-between our weather recording intervals... More about our weather records

Advertising

Brăila Weather History for the Previous 24 Hours

Scroll right to see more
 ConditionsComfort  
Time TempWeatherWind HumidityBarometerVisibility
7:00 pm
Thu, Feb 23
46 °FOvercast.No wind90%29.79 "Hg6 mi
6:00 pm50 °FOvercast.2 mph81%29.77 "Hg6 mi
5:00 pm51 °FOvercast.3 mph80%29.75 "Hg6 mi
4:00 pm49 °FOvercast.2 mph80%29.76 "Hg6 mi
3:00 pm49 °FOvercast.2 mph78%29.75 "Hg6 mi
2:00 pm47 °FOvercast.2 mph76%29.77 "Hg6 mi
1:00 pm45 °FOvercast.3 mph78%29.76 "Hg6 mi
12:00 pm44 °FOvercast.3 mph78%29.76 "Hg6 mi
11:00 am43 °FOvercast.3 mph79%29.75 "Hg6 mi
10:00 am43 °FOvercast.1 mph79%29.76 "Hg6 mi
9:00 am43 °FOvercast.5 mph77%29.72 "Hg12 mi
8:00 am44 °FOvercast.5 mph75%29.73 "Hg12 mi
7:00 am43 °FPartly sunny.5 mph78%29.71 "Hg6 mi
6:00 am41 °FClear.6 mph82%29.72 "Hg6 mi
5:00 am41 °FClear.5 mph85%29.73 "Hg6 mi
4:00 am41 °FClear.3 mph87%29.74 "Hg6 mi
3:00 am42 °FPassing clouds.3 mph84%29.78 "Hg6 mi
2:00 am42 °FOvercast.5 mph86%29.80 "Hg6 mi
1:00 am42 °FPassing clouds.3 mph87%29.82 "Hg6 mi
12:00 am42 °FClear.2 mph87%29.83 "Hg6 mi
11:00 pm
Wed, Feb 22
44 °FClear.3 mph84%29.84 "Hg6 mi
10:00 pm44 °FClear.3 mph84%29.85 "Hg6 mi
9:00 pm44 °FClear.3 mph84%29.86 "Hg12 mi
8:00 pm46 °FClear.5 mph79%29.88 "Hg12 mi
Weather by CustomWeather, © 2017

See weather overviewHow to use our weather pages